Hourly Data Report for May 31, 2006

TORONTO CITY
ONTARIO

43°40'00.000" N
79°24'00.000" W
112.50 m
6158355
71508
XTO

Download Data

Hourly Data (May 2006)
Hourly Data Report for May 31, 2006
TIME
LST
Temp Definition
°C
Dew Point Definition
°C
Rel Hum Definition
%
Precip. Amount Definition
mm

Wind Dir Definition
10's deg

Wind Spd Definition
km/h
Visibility Definition
km
Stn Press Definition
kPa
Hmdx Definition


Wind Chill Definition


Weather Definition


00:00 24.3 20.4 79   LegendMM LegendMM   100.32 32   LegendNANA
01:00 22.1 19.6 86   LegendMM LegendMM   100.32 29   LegendNANA
02:00 21.7 19.4 87   LegendMM LegendMM   100.34 29   LegendNANA
03:00 21.9 19.6 87   LegendMM LegendMM   100.32 29   LegendNANA
04:00 21.5 19.4 88   LegendMM LegendMM   100.34 29   LegendNANA
05:00 21.2 19.3 89   LegendMM LegendMM   100.36 28   LegendNANA
06:00 21.8 20.0 90   LegendMM LegendMM   100.41 29   LegendNANA
07:00 23.6 20.6 83   LegendMM LegendMM   100.41 32   LegendNANA
08:00 24.5 19.3 73   LegendMM LegendMM   100.47 32   LegendNANA
09:00 23.6 19.4 77   LegendMM LegendMM   100.46 31   LegendNANA
10:00 23.9 19.7 77   LegendMM LegendMM   100.42 31   LegendNANA
11:00 25.9 19.7 69   LegendMM LegendMM   100.43 33   LegendNANA
12:00 26.7 20.3 68   LegendMM LegendMM   100.42 35   LegendNANA
13:00 28.5 20.6 62   LegendMM LegendMM   100.35 37   LegendNANA
14:00 27.7 20.6 65   LegendMM LegendMM   100.29 36   LegendNANA
15:00 28.4 20.4 62   LegendMM LegendMM   100.24 36   LegendNANA
16:00 27.4 20.6 66   LegendMM LegendMM   100.16 35   LegendNANA
17:00 26.0 20.5 72   LegendMM LegendMM   100.21 34   LegendNANA
18:00 24.7 20.2 76   LegendMM LegendMM   100.26 32   LegendNANA
19:00 23.3 20.1 82   LegendMM LegendMM   100.24 31   LegendNANA
20:00 22.3 20.8 91   LegendMM LegendMM   100.20 31   LegendNANA
21:00 21.9 21.2 96   LegendMM LegendMM   100.25 30   LegendNANA
22:00 21.9 21.2 96   LegendMM LegendMM   100.28 30   LegendNANA
23:00 22.0 21.4 96   LegendMM LegendMM   100.30 31   LegendNANA

Notes on Data Quality.

Legend

  • E = Estimated
  • M = Missing
  • NA = Not Available*
  • [empty] = Indicates an unobserved value
Date modified: